World > North America > United States > Iowa

Paullina, Iowa Regional Weather

Lat: 42.98N, Lon: 95.69W
Wx Zone: IAZ013Web Search
Paullina Weather Warning NWS WEATHER ALERT FOR THE PAULLINA, IA AREA - Issued: 527 AM CDT Sat May 8 2021 Paullina Weather Warning  

Helpful Tip: Abbreviated, 7 Day, 14 Day Forecasts. There is a weather forecast for every taste.

Feedback


°F Click to change Paullina hourly weather to Imperial units.Click to change Paullina hourly weather to Metric units. °C
Paullina Weather Map
UTC Time: 5/8/2021, 21:32
Your Time:

Paullina, IA Regional Weather

Expires:202105082200;;806011
ASUS43 KFSD 082110
RWRFSD

WEATHER ROUNDUP FOR SE SOUTH DAKOTA/SW MINNESOTA/NW IOWA
NATIONAL WEATHER SERVICE SIOUX FALLS SD
400 PM CDT SAT MAY 08 2021

NOTE: "FAIR" INDICATES FEW OR NO CLOUDS BELOW 12,000 FEET WITH NO
SIGNIFICANT WEATHER AND OR OBSTRUCTIONS TO VISIBILITY.



IAZ001>003-012>014-020>022-031-032-NEZ013-014-SDZ071-082200-
NORTHWEST IOWA
  
CITY           SKY/WX    TMP DP  RH WIND       PRES   REMARKS
CHEROKEE       RAIN      44  42  93 E16G24    29.94F                  
DENISON        CLOUDY    48  37  66 E20G35    29.87R                  
ESTHERVILLE    LGT RAIN  42  37  82 E17G24    29.98F                  
LE MARS        CLOUDY    45  41  87 E16G24    29.88F                  
MAURICE        MIX PCPN  41  41 100 E26G37    29.87F                  
SHELDON        MIX PCPN  43  43 100 E24G31    29.90S                  
SIOUX CITY     LGT RAIN  48  39  71 E23G37    29.83F                  
SPENCER        RAIN      44  39  82 E18G25    29.96F                  
STORM LAKE       N/A    N/A N/A N/A MISG        N/A                   
$$
 
ABBREVIATIONS USED IN REMARKS
   TC - TEMPERATURE IN CELSIUS
  WCI - WIND CHILL INDEX
   HX - HEAT INDEX
  VSB - VISIBILITY

  

SKY/WX - Weather  TMP - Temperature  DP - Dew Point  RH - Relative Humidity
WIND - Wind Direction/Speed PRES - Barometric Pressure VSB - Visibility
WCI - Wind Chill Index E13G22 Wind - East Wind 13 mph/Gusts of 22 mph